Change the Weather History Date:

Tuesday, December 23, 2014

  Actual Average Record
Temperature  
Mean Temperature 48 °F -  
Max Temperature 54 °F 33 °F 56 °F (1957)
Min Temperature 43 °F 21 °F -11 °F (1989)
Degree Days  
Heating Degree Days 16    
Moisture  
Dew Point 46 °F    
Average Humidity 88    
Maximum Humidity 96    
Minimum Humidity 71    
Precipitation  
Precipitation 0.14 in - - ()
Sea Level Pressure  
Sea Level Pressure 29.76 in    
Wind  
Wind Speed 10 mph (SE)    
Max Wind Speed 14 mph    
Max Gust Speed 21 mph    
Visibility 6 miles    
Events Fog , Rain    
Averages and records for this station are not official NWS values.
T = Trace of Precipitation, MM = Missing Value Source: NWS Daily Summary

Daily Weather History Graph

Daily Weather History Graph

Search for Another Location

Airport or City:

Trip Planner

Search our weather history database for the weather conditions in past years. The results will help you decide how hot, cold, wet, or windy it might be!

Date:

Astronomy

Dec. 23, 2014 Rise Set
Actual Time 7:57 AM EST 5:10 PM EST
Civil Twilight 7:25 AM EST 5:41 PM EST
Nautical Twilight 6:51 AM EST 6:16 PM EST
Astronomical Twilight 6:17 AM EST 6:49 PM EST
Moon 9:00 AM EST (12/23) 7:25 PM EST (12/23)
Length of Visible Light 10h 15m
Length of Day
9h 13m
Waxing Crescent, 4% of the Moon is Illuminated
Dec 23
Waxing Crescent
Dec 28
First Quarter
Jan 4
Full
Jan 13
Last Quarter
Jan 20
New

Hourly Weather History & Observations

Time (EST) Temp. Windchill Dew Point Humidity Pressure Visibility Wind Dir Wind Speed Gust Speed Precip Events Conditions
12:53 AM 44.1 °F 37.7 °F 35.1 °F 71% 29.74 in 10.0 mi ESE 12.7 mph - N/A   Overcast
1:53 AM 43.0 °F 37.2 °F 37.0 °F 80% 29.74 in 4.0 mi SE 10.4 mph - 0.04 in Rain Rain
2:37 AM 43.0 °F 36.0 °F 37.9 °F 82% 29.73 in 10.0 mi ESE 13.8 mph - 0.03 in   Overcast
2:53 AM 43.0 °F 36.4 °F 37.9 °F 82% 29.74 in 10.0 mi ESE 12.7 mph - 0.03 in   Overcast
3:23 AM 43.0 °F 36.0 °F 37.9 °F 82% 29.73 in 10.0 mi SE 13.8 mph - N/A   Overcast
3:53 AM 44.1 °F 38.6 °F 37.9 °F 79% 29.73 in 10.0 mi SE 10.4 mph - N/A   Overcast
4:02 AM 44.1 °F 37.7 °F 39.0 °F 82% 29.72 in 10.0 mi SE 12.7 mph 20.7 mph N/A   Overcast
4:53 AM 45.0 °F 38.9 °F 39.9 °F 82% 29.73 in 10.0 mi SSE 12.7 mph - N/A   Overcast
5:53 AM 46.0 °F 40.6 °F 41.0 °F 83% 29.74 in 10.0 mi SSE 11.5 mph - N/A   Overcast
6:53 AM 45.0 °F 38.9 °F 42.1 °F 90% 29.74 in 7.0 mi SSE 12.7 mph - N/A   Overcast
7:11 AM 46.0 °F 40.2 °F 42.1 °F 86% 29.74 in 9.0 mi SSE 12.7 mph - N/A   Overcast
7:53 AM 46.0 °F 40.2 °F 42.1 °F 86% 29.76 in 10.0 mi SSE 12.7 mph - N/A   Overcast
8:29 AM 46.0 °F 40.6 °F 42.1 °F 86% 29.77 in 8.0 mi SSE 11.5 mph - N/A   Overcast
8:53 AM 46.0 °F 40.2 °F 43.0 °F 89% 29.78 in 8.0 mi South 12.7 mph - N/A   Overcast
9:13 AM 46.9 °F - 43.0 °F 86% 29.78 in 7.0 mi SSE 11.5 mph - N/A   Overcast
9:26 AM 46.9 °F - 44.1 °F 90% 29.78 in 5.0 mi South 10.4 mph - N/A   Overcast
9:39 AM 48.0 °F - 44.1 °F 86% 29.78 in 8.0 mi SSE 11.5 mph - N/A   Overcast
9:41 AM 48.0 °F - 44.1 °F 86% 29.78 in 8.0 mi SSE 12.7 mph - N/A   Overcast
9:48 AM 48.2 °F - 44.6 °F 87% 29.79 in 7.0 mi SSE 11.5 mph - N/A   Overcast
9:53 AM 48.0 °F - 44.1 °F 86% 29.79 in 8.0 mi SSE 12.7 mph - N/A   Overcast
10:53 AM 50.0 °F - 46.0 °F 86% 29.81 in 8.0 mi SSE 13.8 mph - N/A   Overcast
11:53 AM 52.0 °F - 48.0 °F 86% 29.80 in 9.0 mi South 12.7 mph - N/A   Overcast
12:05 PM 52.0 °F - 48.0 °F 86% 29.79 in 10.0 mi South 11.5 mph - N/A   Overcast
12:16 PM 52.0 °F - 48.0 °F 86% 29.79 in 10.0 mi South 13.8 mph - N/A   Overcast
12:53 PM 54.0 °F - 48.9 °F 83% 29.77 in 10.0 mi South 10.4 mph - N/A   Overcast
1:16 PM 54.0 °F - 48.9 °F 83% 29.78 in 10.0 mi South 12.7 mph - N/A   Overcast
1:53 PM 54.0 °F - 50.0 °F 86% 29.77 in 10.0 mi SSW 11.5 mph - N/A   Overcast
2:48 PM 53.6 °F - 48.2 °F 82% 29.77 in 10.0 mi SSW 10.4 mph - N/A   Overcast
2:53 PM 54.0 °F - 48.9 °F 83% 29.77 in 10.0 mi SSW 8.1 mph - N/A   Overcast
3:53 PM 54.0 °F - 48.9 °F 83% 29.78 in 10.0 mi SSW 5.8 mph - N/A   Overcast
4:31 PM 53.1 °F - 48.9 °F 86% 29.79 in 10.0 mi SSE 5.8 mph - N/A   Overcast
4:53 PM 53.1 °F - 48.9 °F 86% 29.79 in 10.0 mi SSE 5.8 mph - N/A   Overcast
5:53 PM 52.0 °F - 48.0 °F 86% 29.78 in 9.0 mi SE 8.1 mph - N/A   Overcast
6:53 PM 51.1 °F - 48.9 °F 92% 29.78 in 7.0 mi SE 8.1 mph - N/A   Overcast
7:23 PM 51.1 °F - 48.9 °F 92% 29.78 in 3.0 mi SE 9.2 mph - 0.00 in Rain Light Rain
7:38 PM 51.1 °F - 48.9 °F 92% 29.77 in 4.0 mi SE 5.8 mph - 0.00 in Rain Light Rain
7:53 PM 51.1 °F - 50.0 °F 96% 29.77 in 4.0 mi ESE 4.6 mph - 0.00 in   Overcast
8:03 PM 51.1 °F - 50.0 °F 96% 29.77 in 4.0 mi ESE 4.6 mph - N/A   Overcast
8:18 PM 52.0 °F - 50.0 °F 93% 29.77 in 1.8 mi East 3.5 mph - N/A   Overcast
8:32 PM 51.1 °F - 50.0 °F 96% 29.77 in 1.0 mi East 3.5 mph - N/A   Overcast
8:39 PM 51.1 °F - 48.9 °F 92% 29.77 in 0.5 mi Calm Calm - N/A Fog Fog
8:53 PM 51.1 °F - 48.9 °F 92% 29.75 in 0.2 mi East 4.6 mph - N/A Fog Fog
9:53 PM 50.0 °F - 48.9 °F 96% 29.74 in 0.2 mi ENE 5.8 mph - 0.01 in Fog , Rain Light Rain
9:55 PM 50.0 °F - 48.9 °F 96% 29.75 in 0.5 mi ENE 4.6 mph - 0.01 in Fog , Rain Light Rain
10:09 PM 51.1 °F - 48.9 °F 92% 29.74 in 0.8 mi ENE 5.8 mph - 0.03 in Rain Rain
10:18 PM 51.1 °F - 48.9 °F 92% 29.73 in 1.5 mi NE 5.8 mph - 0.04 in Rain Light Rain
10:27 PM 51.1 °F - 48.9 °F 92% 29.73 in 1.8 mi ENE 4.6 mph - 0.06 in Rain Light Rain
10:37 PM 51.1 °F - 48.9 °F 92% 29.73 in 2.0 mi ENE 5.8 mph - 0.06 in Rain Light Rain
10:46 PM 51.1 °F - 48.9 °F 92% 29.73 in 2.0 mi ENE 5.8 mph - 0.06 in   Overcast
10:53 PM 51.1 °F - 48.9 °F 92% 29.72 in 1.8 mi ENE 5.8 mph - 0.06 in   Overcast
11:12 PM 51.1 °F - 48.9 °F 92% 29.72 in 2.5 mi East 6.9 mph - N/A   Overcast
11:24 PM 51.1 °F - 48.9 °F 92% 29.71 in 2.0 mi East 6.9 mph - 0.00 in Rain Light Rain
11:34 PM 51.1 °F - 48.9 °F 92% 29.70 in 2.0 mi East 8.1 mph - 0.00 in Rain Light Rain
11:46 PM 51.1 °F - 48.9 °F 92% 29.69 in 2.5 mi ENE 8.1 mph - 0.00 in   Overcast
11:53 PM 51.1 °F - 48.9 °F 92% 29.68 in 2.0 mi East 8.1 mph - 0.00 in Rain Light Rain